Showing default

COSMOS 2565, 54381

Orbit data source: Space-Track

COSMOS 2565, 54381 is a payload satellite owned by VVKO VKS (CIS) in LEO that was launched on Wed, 30 Nov 2022 UTC via a SOYUZ-2-1B launch vehicle from the Plesetsk Missile And Space Complex (PKMTR). Payload-class satellites include a variety of spacecraft equipped with specific instruments for various scientific and technological missions. These include communications satellites like Starlink; space stations such as the ISS; scientific satellites like the Hubble; Earth observation satellites from companies like Planet Labs, Umbra, and HawkEye 360; GPS; miniature CubeSats for education and research; and military/defense satellites.

Loading next visibility...
Identifier
54381, 2022-163A
Orbit
LEO
Country
Flag of CISCIS
Related business
Manufacturer
TSSKBP/ARSLO
Mission
Operational Defense Sigint
Bus & Motor
YANTAR'-LOTOS, 11D428
Mass
6,575 kg wet, ~6,500 kg dry
Launch date (UTC)
2022-11-30 (4 years ago)
Launch vehicle
SOYUZ-2-1B
Launch site
Plesetsk Missile And Space Complex (PKMTR)
Object type
Payload
Rocket body
Debris
Shape & HBR
Cyl + 2 Pan, 3.1 m
Radar Cross Section
16.222 m², Large (>1 m²)

Expand to show TLE details & history
Last TLE update: 1 day ago

TLE from 1 day ago
0 COSMOS 2565
1 54381U 22163A   26172.52004272 -.00000045  00000-0  21941-4 0  9996
2 54381  67.1491  96.7250 0006672 273.5455  86.4866 13.96678324181379
Epoch: 2026-06-21T12:28Z
TLE epoch observation values (Epoch: 2026-06-21T12:28:51.691Z)
Latitude
-0.00009°
Longitude
-0.20955°
Altitude
907.134 km
Speed
7.399 km/s
True Right ascension
06h 26m 53s
True Declination
0° 00' 00"
Sunlit
Object was in daylight at epoch
Visualization orbit readout
Latitude
Unknown
Longitude
Unknown
Altitude
Unknown
Speed
Unknown
Apparent Right ascension
Unknown
Apparent Declination
Unknown
Sunlit
N/A
Visualization observer readout
Local Sidereal Time
00:50:55
Azimuth
Unknown
Elevation
Unknown
Doppler factor
Unknown
Orbital elements
Apogee altitude
908.528 km
Perigee altitude
898.811 km
Semi-major axis
7,281.806 km
Eccentricity
0.00067
Inclination
67.1491°
RAAN
96.725°
Arg. of periapsis
273.5455°
True anomaly
86.56292°
Mean anomaly
86.4866°
Eccentric anomaly
86.52476°
Mean motion
3.49289 °/min
Orbital period
103.07 mins
BSTAR
0.000021941
Loading maneuver chart data...
Computing Atmospheric mass density...
Loading historical data...
Loading historical data...
Loading historical data...
Loading historical data...
Loading historical data...
Loading historical data...
Loading historical data...
Other satellites on launch #163 in the year 2022 (2022-11-30 UTC)

Documentation

Showing up to 5 results
|